PSLV DEB, 41792

Orbit data source: Space-Track

PSLV DEB, 41792 is space debris in SSO originally from a launch on Mon, 26 Sep 2016 UTC launched from the Sirharikota (SRI). Debris objects in space refer to the collection of defunct objects orbiting the Earth. Examples of debris include non-operational satellites, rocket bodies, and fragments generated from explosions, collisions, or faulty payload assembly.

Loading next visibility...
Identifier
41792, 2016-059K
Orbit
SSO
Last TLE update
7 hours ago
Origin
Manufacturer
VSSC/LPSC
Mission
Spacecraft
Bus & Motor
Unknown
Mass
Unknown
Launch date (UTC)
2016-09-26 (9 years ago)
Launch vehicle
Unknown
Launch site
Sirharikota (SRI)
Object type
Payload
Rocket body
Debris
Shape & HBR
Cone + Cyl, 3 m
Radar Cross Section
7.069 m², Large (>1 m²)

Expand to show TLE details & history

TLE from 7 hours ago
0 PSLV DEB
1 41792U 16059K   25183.57223185  .00002457  00000-0  35636-3 0  9990
2 41792  97.8059 211.1476 0021522 201.6163 158.4141 14.76767594469229
Epoch: 2025-07-02T13:44Z
TLE epoch observation values (Epoch: 2025-07-02T13:44:00.831Z)
Latitude
-0.00004°
Longitude
84.29274°
Altitude
656.617 km
Speed
7.522 km/s
True Right ascension
14h 04m 35s
True Declination
0° 00' 00"
Sunlit
Object was in daylight at epoch
Visualization orbit readout
Latitude
31.62186°
Longitude
-90.60246°
Altitude
634.44 km
Speed
7.549 km/s
Apparent Right ascension
23h 53m 08s
Apparent Declination
-2° 58' 38"
Sunlit
Object is in daylight
Visualization observer readout
Local Sidereal Time
08:38:35
Azimuth
297.103° NW
Elevation
-32.648°
Doppler factor
1
Orbital elements
Apogee altitude
651.684 km
Perigee altitude
621.49 km
Semi-major axis
7,014.724 km
Eccentricity
0.00215
Inclination
97.8059°
RAAN
211.1476°
Arg. of periapsis
201.6163°
True anomaly
Unknown
Mean anomaly
158.4141°
Eccentric anomaly
Unknown
Mean motion
3.69426 °/min
Orbital period
97.45 mins
BSTAR
0.00035636
Loading maneuver chart data...
Loading SW <> Apogee altitude chart data...
Loading historical data...
Loading historical data...
Loading historical data...
Loading historical data...
Loading historical data...
Loading historical data...
Loading historical data...

PSLV DEB Visibility forecast

Observer location: undefined°, undefined°

Span
Click to sort rows by Start time (UTC) header in descending order
Start Az.
Max El. time (UTC)
Max El. Az.
Max El.
End time (UTC)
End Az.
8 mins2025-07-03 01:14:28.695Z136.183° SSE2025-07-03 01:18:28.695Z71.251° E30.208°2025-07-03 01:22:28.695Z5.92° NNE
4 mins2025-07-03 02:53:28.695Z238.636° WSW2025-07-03 02:55:28.695Z273.97° WNW18.968°2025-07-03 02:57:28.695Z304.986° NW
7 mins2025-07-03 14:42:28.695Z14.471° NNE2025-07-03 14:45:28.695Z103.213° ESE44.892°2025-07-03 14:49:28.695Z191.598° SSW
|